Date,TemperatureHighF,TemperatureAvgF,TemperatureLowF,DewpointHighF,DewpointAvgF,DewpointLowF,HumidityHigh,HumidityAvg,HumidityLow,PressureMaxIn,PressureMinIn,WindSpeedMaxMPH,WindSpeedAvgMPH,GustSpeedMaxMPH,PrecipitationSumIn
2012-1-1,32.0,17.9,8.1,32.0,2.1,-1.4,65,48,39,30.49,30.33,2,0,2,0.01
2012-1-2,34.3,28.3,18.4,23.1,17.1,6.1,74,62,53,30.33,29.92,0,0,2,0.00
2012-1-3,45.4,40.4,36.5,26.3,21.2,17.3,55,46,37,30.12,30.02,2,0,11,0.00
2012-1-4,47.4,43.9,37.2,33.8,29.2,25.7,81,57,46,30.09,29.96,0,0,3,0.01
2012-1-5,39.2,34.9,33.1,33.3,26.7,18.0,96,74,42,29.92,29.75,1,0,16,0.00
2012-1-6,31.0,28.6,25.4,11.7,9.9,7.5,55,45,37,30.09,30.03,0,0,3,0.00
2012-1-7,30.6,26.9,20.3,14.4,11.5,9.7,66,52,42,30.16,30.08,2,0,16,0.00
2012-1-8,43.2,37.2,28.5,27.6,22.3,14.4,58,54,50,30.11,30.05,2,0,16,0.00
2012-1-9,47.6,43.6,39.5,28.7,22.1,14.0,65,43,31,30.07,29.89,1,0,18,0.00
2012-1-10,39.1,21.4,3.2,24.8,13.4,-1.9,88,73,35,30.41,29.88,1,0,9,0.00
2012-1-11,32.0,13.0,3.2,32.0,4.9,-5.0,80,69,56,30.44,30.29,2,0,2,0.00
2012-1-12,31.0,21.5,9.9,16.2,8.4,0.5,75,57,45,30.33,30.04,4,0,4,0.00
2012-1-13,32.8,27.5,20.3,32.0,6.5,-0.3,72,42,27,30.11,29.97,16,0,16,0.00
2012-1-14,26.0,21.8,17.8,21.0,14.6,7.5,84,74,54,30.01,29.63,3,0,3,0.00
2012-1-15,18.0,4.6,-6.5,13.3,-2.5,-14.9,84,72,65,30.01,29.71,11,0,11,0.00
2012-1-16,32.0,-13.8,-18.4,-14.3,-22.4,-26.9,71,64,58,30.05,29.98,7,0,7,0.00
2012-1-17,-18.4,-20.1,-22.3,-26.6,-28.6,-31.5,66,63,61,30.02,29.81,5,0,5,0.00
2012-1-18,32.0,-18.0,-24.2,32.0,-26.8,-33.3,68,62,55,29.91,29.85,2,0,2,0.00
2012-1-19,-4.3,-13.7,-22.0,-13.4,-22.0,-30.9,71,65,57,30.82,29.82,0,0,0,0.00
2012-1-20,18.1,5.4,-14.3,10.9,-1.1,-22.1,84,74,66,30.00,29.30,1,0,1,0.00
2012-1-21,39.8,30.1,14.8,32.0,17.9,9.2,89,61,40,29.30,28.87,9,0,9,0.02
2012-1-22,32.9,27.2,20.3,32.0,9.5,1.8,70,47,30,29.58,29.22,16,0,16,0.02
2012-1-23,31.5,27.7,22.2,14.1,8.9,4.7,69,45,33,29.71,29.38,8,0,8,0.00
2012-1-24,33.1,29.4,25.1,22.9,13.7,3.1,88,54,33,29.73,29.28,12,0,12,0.00
2012-1-25,37.2,31.8,26.1,23.3,10.4,4.4,88,42,28,29.65,29.27,21,1,21,0.00
2012-1-26,32.1,26.4,22.1,21.9,11.6,-5.3,84,56,27,29.90,29.46,17,0,17,0.00
2012-1-27,25.0,23.1,20.3,10.7,4.5,-5.6,65,45,28,30.12,29.89,9,0,10,0.00
2012-1-28,35.0,28.0,21.8,20.9,11.5,4.4,63,50,40,30.07,29.58,14,0,14,0.00
2012-1-29,46.7,40.9,32.0,32.0,25.9,20.2,86,57,38,29.58,29.28,18,0,18,0.02
2012-1-30,41.5,36.8,31.9,29.8,20.6,12.8,84,53,36,29.54,29.25,15,0,15,0.00
2012-1-31,37.9,34.7,29.3,19.7,14.1,9.6,62,43,34,29.74,29.49,17,0,17,0.00
2012-2-1,36.9,33.0,26.4,19.5,16.4,12.1,58,50,44,29.82,29.67,2,0,2,0.00
2012-2-2,34.7,27.8,16.4,17.1,14.9,11.4,81,59,42,30.33,30.19,1,0,1,0.00
2012-2-3,36.3,25.3,15.6,22.1,16.4,9.9,79,69,48,30.41,30.17,2,0,2,0.00
2012-2-4,37.9,28.3,20.6,22.8,19.6,15.7,81,70,52,30.24,30.12,1,0,2,0.00
2012-2-5,34.1,20.7,13.1,20.3,14.1,8.6,86,76,52,30.32,30.18,1,0,1,0.00
2012-2-6,30.6,25.0,21.3,21.5,18.0,16.2,81,75,60,30.37,30.26,0,0,4,0.00
2012-2-7,27.6,19.9,11.4,16.7,9.4,1.6,81,64,46,30.34,30.07,0,0,1,0.00
2012-2-8,34.6,26.5,8.6,9.4,4.9,-2.7,63,41,26,30.15,30.01,1,0,2,0.00
2012-2-9,35.3,21.9,12.1,18.0,10.5,5.0,76,62,46,30.29,30.13,6,0,6,0.00
2012-2-10,32.0,16.9,11.6,32.0,8.9,6.2,81,70,56,30.30,30.22,6,0,6,0.00
2012-2-11,34.6,24.8,8.6,20.5,14.8,3.2,81,66,51,30.29,29.92,0,0,1,0.00
2012-2-12,36.8,31.4,26.6,26.0,23.1,20.2,78,71,58,29.64,29.60,0,0,0,0.00
2012-2-13,37.6,28.7,15.2,26.6,21.8,9.9,86,76,54,29.73,29.54,7,0,7,0.00
2012-2-14,28.8,14.8,7.4,15.1,8.7,0.7,86,77,51,29.95,29.71,2,0,2,0.00
2012-2-15,33.2,20.5,5.2,32.0,9.1,-0.4,81,62,45,30.16,29.93,2,0,2,0.00
2012-2-16,35.2,25.2,14.1,18.0,11.6,5.8,71,56,37,30.08,29.90,3,0,3,0.00
2012-2-17,35.5,25.7,15.6,16.2,13.4,9.7,78,60,38,30.11,29.77,2,0,2,0.01
2012-2-18,35.9,25.5,16.4,18.7,12.2,5.4,78,58,32,29.77,29.53,6,0,6,0.00
2012-2-19,33.5,26.5,19.9,32.0,11.6,7.2,71,54,35,29.59,29.50,2,0,2,0.00
2012-2-20,32.8,24.9,15.1,20.2,15.2,7.6,86,68,39,29.75,29.56,2,0,2,0.05
2012-2-21,39.1,35.1,26.4,19.8,16.1,11.9,68,46,33,29.60,29.30,15,0,15,0.00
2012-2-22,38.5,32.5,25.8,27.3,14.2,0.8,87,51,20,29.65,29.19,10,0,10,0.00
2012-2-23,34.3,26.7,20.3,32.0,7.0,0.9,60,43,27,29.96,29.65,14,0,14,0.00
2012-2-24,27.5,19.9,10.7,17.4,8.4,1.5,76,61,40,30.06,29.57,1,0,1,0.00
2012-2-25,25.6,18.7,10.9,18.9,12.4,4.2,84,76,68,29.90,29.32,9,0,9,0.00
2012-2-26,32.0,8.8,6.5,32.0,1.9,-0.1,77,72,62,30.16,29.90,5,0,5,0.00
2012-2-27,27.5,19.7,3.5,6.4,2.7,-4.8,71,48,35,30.16,29.86,2,0,2,0.00
2012-2-28,32.0,17.0,4.7,32.0,0.7,-5.9,77,52,21,29.87,29.59,2,0,2,0.01
2012-2-29,30.3,21.0,12.3,13.0,5.7,1.7,64,52,39,29.60,29.38,2,0,2,0.00
2012-3-1,30.1,21.5,9.5,15.6,9.8,2.6,81,62,38,29.95,29.47,2,0,2,0.00
2012-3-2,31.6,24.1,9.9,14.6,8.9,2.9,83,54,33,29.98,29.78,17,0,17,0.00
2012-3-3,42.8,35.2,28.5,30.3,19.2,12.9,88,53,37,29.78,29.46,20,0,20,0.01
2012-3-4,44.2,37.1,26.4,32.0,28.5,22.0,89,72,42,29.73,29.41,12,0,12,0.02
2012-3-5,34.4,25.9,22.7,31.7,22.5,18.6,91,87,82,29.42,29.25,12,0,12,0.00
2012-3-6,29.0,22.1,16.9,16.2,12.5,10.4,84,67,51,29.76,29.44,1,0,2,0.00
2012-3-7,37.8,31.3,19.1,32.0,13.9,7.9,64,48,35,30.06,29.75,10,0,10,0.00
2012-3-8,45.7,36.5,28.1,23.1,17.9,12.3,68,48,30,30.08,29.77,15,0,15,0.00
2012-3-9,50.7,44.9,36.5,32.5,20.3,10.6,85,40,25,29.77,29.54,10,0,10,0.00
2012-3-10,48.5,41.7,32.0,32.4,24.5,19.9,85,51,34,29.57,29.34,8,0,9,0.00
2012-3-11,46.5,34.8,28.5,26.9,23.2,17.0,79,65,31,29.39,29.08,4,0,4,0.00
2012-3-12,37.3,31.7,25.4,22.7,10.2,2.2,62,41,28,29.46,29.08,2,0,20,0.01
2012-3-13,35.6,30.4,23.5,31.7,19.9,1.6,94,67,33,29.42,28.83,3,0,22,0.01
2012-3-14,33.5,27.2,19.4,14.2,10.8,5.8,74,51,36,29.60,29.42,0,0,12,0.02
2012-3-15,44.1,35.1,28.7,33.1,28.9,13.7,93,79,50,29.55,29.21,1,0,6,0.02
2012-3-16,38.5,32.2,23.0,32.8,27.7,20.2,93,84,59,29.44,29.18,1,0,1,0.00
2012-3-17,37.3,28.5,21.1,26.9,23.2,17.6,91,81,61,29.46,29.23,2,0,2,0.00
2012-3-18,38.3,30.8,23.9,25.4,16.4,5.2,87,58,26,29.49,29.24,7,0,7,0.00
2012-3-19,38.2,28.5,18.6,32.0,16.2,6.8,83,62,28,29.55,29.36,2,0,2,0.00
2012-3-20,32.5,29.1,26.0,22.4,15.6,9.2,79,58,40,29.32,29.17,15,0,15,0.00
2012-3-21,33.5,28.9,23.3,13.4,5.6,-2.0,58,37,25,29.76,29.32,7,0,8,0.00
2012-3-22,33.2,24.5,18.6,32.0,16.0,8.1,88,70,53,29.92,29.63,2,0,2,0.00
2012-3-23,30.0,24.9,20.8,21.7,19.1,16.0,86,79,65,30.07,29.87,6,0,7,0.00
2012-3-24,38.2,21.8,12.8,19.2,12.6,7.6,83,70,38,30.19,29.93,1,0,1,0.02
2012-3-25,48.2,35.4,14.0,29.8,20.4,7.9,83,57,28,29.98,29.59,1,0,1,0.02
2012-3-26,40.6,32.3,26.7,31.4,26.6,18.9,91,80,43,29.59,29.50,2,0,2,0.00
2012-3-27,48.3,39.5,28.2,32.0,24.7,16.4,91,59,28,29.64,29.51,7,0,7,0.00
2012-3-28,53.6,38.9,28.8,31.6,24.8,18.8,82,60,27,29.56,29.29,12,0,12,0.00
2012-3-29,46.7,37.8,33.4,30.6,22.6,14.5,85,55,34,29.42,29.15,4,0,4,0.00
2012-3-30,40.1,33.9,27.9,33.1,29.0,19.2,93,83,58,29.40,29.05,3,0,3,0.00
2012-3-31,42.9,33.0,27.9,31.5,24.6,18.0,86,72,43,29.45,29.26,2,0,2,0.00
2012-4-1,44.2,41.8,32.0,32.0,17.7,12.7,47,37,29,29.48,29.27,2,0,2,0.00
2012-4-2,46.4,38.3,31.2,21.9,16.3,9.6,67,42,27,29.97,29.48,9,0,9,0.00
2012-4-3,58.4,40.6,27.3,24.6,18.2,8.5,72,45,16,29.86,29.44,10,0,10,0.00
2012-4-4,42.5,32.7,27.5,28.4,24.8,18.5,88,74,39,29.71,29.42,10,0,10,0.00
2012-4-5,35.5,27.9,22.7,27.3,23.6,18.3,90,84,67,29.91,29.71,2,0,2,0.00
2012-4-6,41.3,26.4,15.9,21.4,15.6,11.7,86,67,33,30.05,29.90,1,0,1,0.00
2012-4-7,39.8,33.7,19.2,21.3,15.1,10.0,74,47,32,30.17,29.99,3,0,3,0.00
2012-4-8,49.8,32.6,18.1,20.9,14.5,9.9,73,50,21,30.32,30.14,9,0,9,0.00
2012-4-9,54.4,37.4,23.6,24.4,19.6,15.1,74,51,26,30.18,29.88,2,0,2,0.00
2012-4-10,58.9,42.6,28.4,28.2,23.9,20.8,76,51,27,29.93,29.64,5,0,5,0.00
2012-4-11,61.2,44.6,30.1,29.9,26.9,24.6,81,53,27,29.65,29.33,6,0,6,0.00
2012-4-12,44.8,38.3,34.1,38.1,33.3,26.6,93,83,49,29.40,29.26,1,0,1,0.00
2012-4-13,49.9,40.6,34.0,34.5,30.0,23.9,95,69,38,29.43,29.37,8,0,8,0.00
2012-4-14,36.3,31.7,26.9,32.0,27.9,22.4,91,85,79,29.89,29.42,6,0,6,0.00
2012-4-15,38.0,29.5,24.1,26.5,22.2,18.3,83,74,62,30.00,29.88,5,0,5,0.00
2012-4-16,46.7,34.3,26.0,31.9,23.7,20.3,86,67,40,29.88,29.63,2,0,2,0.00
2012-4-17,44.1,35.9,32.7,30.3,28.3,26.6,84,74,57,29.84,29.64,7,0,7,0.00
2012-4-18,49.4,37.8,30.9,31.3,27.3,18.5,90,69,31,29.80,29.63,6,0,6,0.00
2012-4-19,52.2,42.3,28.1,26.6,21.4,15.8,82,48,24,29.83,29.71,5,0,5,0.00
2012-4-20,51.3,45.5,36.0,32.8,19.4,15.0,87,38,26,29.84,29.54,14,0,14,0.00
2012-4-21,59.3,44.0,29.5,26.0,19.7,13.5,70,41,18,29.97,29.82,4,0,4,0.00
2012-4-22,67.6,50.8,32.8,35.0,27.9,21.2,70,44,25,29.88,29.61,5,0,6,0.00
2012-4-23,73.9,57.3,40.2,42.8,33.5,28.8,74,45,21,29.64,29.39,3,0,3,0.00
2012-4-24,64.0,49.5,32.0,45.1,38.3,32.0,91,67,32,29.53,29.33,5,0,5,0.00
2012-4-25,62.0,45.9,32.0,42.2,36.6,27.9,96,76,28,29.58,29.47,2,0,4,0.00
2012-4-26,56.9,41.4,39.5,41.7,38.0,36.2,92,88,50,29.54,29.30,9,0,9,0.00
2012-4-27,54.2,45.4,39.1,37.5,28.6,17.8,93,56,28,29.77,29.31,10,0,10,0.00
2012-4-28,57.3,45.3,30.4,32.9,22.0,16.5,78,43,22,29.91,29.75,3,0,3,0.00
2012-4-29,57.6,46.1,35.0,31.2,26.5,21.8,66,48,28,29.76,29.51,3,0,3,0.00
2012-4-30,53.3,43.2,34.3,40.2,32.6,26.8,90,67,50,29.51,29.20,1,0,4,0.00
2012-5-1,43.5,38.1,35.5,35.0,31.9,29.1,89,78,59,29.34,29.26,2,0,2,0.00
2012-5-2,47.0,39.0,34.4,37.3,34.8,32.6,94,85,64,29.65,29.46,0,0,6,0.00
2012-5-3,48.6,39.9,33.4,35.3,32.6,30.4,93,76,54,29.65,29.47,0,0,7,0.00
2012-5-4,55.3,44.4,34.0,33.0,27.8,19.2,83,55,27,29.67,29.48,0,0,3,0.00
2012-5-5,51.6,40.9,33.5,38.2,33.2,27.8,94,76,44,30.04,29.67,0,0,2,0.00
2012-5-6,57.3,43.8,31.3,32.6,24.6,18.2,89,54,23,30.17,30.03,0,0,6,0.00
2012-5-7,65.5,50.7,31.3,33.7,28.2,23.4,74,44,24,30.11,29.83,1,0,6,0.00
2012-5-8,70.1,55.2,42.8,32.6,29.3,20.3,62,40,17,29.83,29.48,6,0,9,0.00
2012-5-9,55.1,48.2,34.3,40.8,32.6,17.8,85,56,26,29.64,29.38,11,0,11,0.00
2012-5-10,41.9,35.8,28.7,32.0,12.9,-0.2,84,44,19,29.96,0.00,26,0,26,0.00
2012-5-11,56.6,42.9,28.4,18.4,12.2,7.2,52,30,18,30.03,29.89,12,0,12,0.00
2012-5-12,67.6,50.6,31.6,23.4,19.3,16.2,60,32,15,30.09,29.87,9,0,9,0.00
2012-5-13,74.2,55.8,32.0,32.0,22.2,15.3,54,30,14,29.97,29.76,3,0,3,0.00
2012-5-14,77.4,56.7,37.3,34.7,27.0,19.6,66,36,13,29.98,29.76,7,0,7,0.00
2012-5-15,80.1,59.0,40.5,35.3,26.0,14.2,66,36,9,29.79,29.52,7,0,7,0.00
2012-5-16,71.1,55.7,39.6,38.9,26.4,18.3,66,36,14,29.54,29.36,11,0,11,0.00
2012-5-17,48.8,41.0,32.5,39.5,31.8,26.1,90,70,57,29.70,29.49,7,0,9,0.00
2012-5-18,53.1,41.6,34.3,30.7,22.7,9.1,82,52,19,29.79,29.63,3,0,3,0.00
2012-5-19,59.8,43.8,29.0,29.5,22.9,12.8,82,49,19,29.88,29.76,5,0,5,0.00
2012-5-20,63.2,45.3,31.3,29.6,23.0,20.9,67,45,22,29.89,29.74,7,0,7,0.00
2012-5-21,62.1,55.9,44.1,41.3,36.8,31.9,67,50,33,29.69,29.35,2,0,3,0.00
2012-5-22,60.9,52.4,46.5,42.7,33.7,22.7,86,52,27,29.35,29.20,13,0,13,0.00
2012-5-23,56.5,48.3,37.9,38.3,28.0,19.2,91,48,26,29.52,29.27,8,0,8,0.00
2012-5-24,42.6,38.4,32.0,36.5,34.4,31.3,92,85,73,29.86,29.52,7,0,7,0.00
2012-5-25,49.5,39.9,35.5,41.5,35.0,32.1,95,83,56,29.98,29.85,9,0,9,0.00
2012-5-26,55.7,44.8,32.4,38.0,30.4,24.2,97,61,31,29.95,29.75,4,0,4,0.00
2012-5-27,58.9,44.7,29.3,32.8,27.8,19.2,85,55,28,29.76,29.65,7,0,7,0.00
2012-5-28,62.4,53.7,33.2,39.0,35.5,27.7,81,52,33,29.73,29.60,8,0,8,0.00
2012-5-29,58.1,49.9,40.5,39.1,34.6,27.9,82,58,37,29.68,29.54,9,0,9,0.00
2012-5-30,58.7,48.6,36.9,33.0,28.0,22.8,77,47,28,29.81,29.68,8,0,8,0.00
2012-5-31,63.4,52.7,43.9,36.8,31.5,26.9,61,45,29,29.79,29.61,3,0,3,0.00
2012-6-1,66.6,57.3,43.9,45.1,36.6,29.6,71,47,32,29.67,29.43,15,0,15,0.00
2012-6-2,66.9,54.3,46.5,43.2,35.4,23.5,75,51,27,29.48,29.25,15,0,15,0.00
2012-6-3,65.5,49.7,37.0,37.0,30.4,24.0,67,49,24,29.67,29.48,5,0,5,0.00
2012-6-4,65.0,54.0,40.5,48.9,36.8,33.1,84,55,34,29.72,29.49,6,0,6,0.00
2012-6-5,56.5,53.2,50.4,52.4,50.1,46.1,96,89,74,29.49,29.40,3,0,3,0.00
2012-6-6,52.8,46.2,41.1,51.7,41.6,25.8,96,84,51,29.54,29.25,2,0,2,0.00
2012-6-7,57.0,44.3,38.8,31.7,28.1,24.8,74,54,33,29.70,29.54,7,0,7,0.00
2012-6-8,56.0,46.0,41.1,42.8,37.9,33.7,92,75,46,29.61,29.43,0,0,2,0.00
2012-6-9,46.5,40.3,33.2,41.2,37.4,31.9,95,89,78,29.63,29.42,1,0,1,0.00
2012-6-10,59.6,48.3,39.2,45.7,40.7,37.6,96,77,47,29.79,29.60,1,0,1,0.00
2012-6-11,68.3,56.5,45.5,43.3,37.3,30.5,87,54,27,29.81,29.69,11,0,11,0.00
2012-6-12,71.5,57.2,39.5,39.3,34.2,29.5,82,47,23,29.73,29.42,6,0,6,0.00
2012-6-13,62.1,52.6,46.2,48.7,40.9,36.2,85,65,40,29.57,29.40,1,0,3,0.00
2012-6-14,62.1,50.6,39.6,44.3,38.1,28.7,91,65,30,29.67,29.54,3,0,3,0.00
2012-6-15,64.0,50.5,40.5,42.5,36.7,25.4,93,65,27,29.85,29.61,3,0,3,0.00
2012-6-16,68.9,60.5,44.9,46.8,38.9,27.6,67,45,36,29.83,29.34,16,0,16,0.00
2012-6-17,65.5,56.4,50.1,43.9,39.5,34.7,70,54,32,29.37,29.20,7,0,7,0.00
2012-6-18,59.9,50.7,45.2,44.5,40.4,37.5,90,68,49,29.50,29.25,5,0,5,0.00
2012-6-19,62.0,49.3,43.5,47.0,43.7,39.2,93,82,48,29.76,29.48,7,0,7,0.00
2012-6-20,63.1,50.8,43.1,50.0,44.5,41.2,95,80,49,29.90,29.76,2,0,2,0.00
2012-6-21,69.8,55.1,39.9,46.5,41.8,36.9,91,64,38,29.88,29.64,7,0,7,0.00
2012-6-22,67.4,56.7,46.8,52.6,46.1,42.8,88,69,45,29.65,29.53,6,0,6,0.00
2012-6-23,55.4,53.5,52.2,51.8,49.6,47.5,92,87,81,29.74,29.54,2,0,2,0.00
2012-6-24,69.1,55.7,49.8,53.3,49.4,37.5,96,81,46,29.78,29.58,3,0,3,0.00
2012-6-25,63.9,53.3,43.1,51.2,43.7,34.1,93,71,33,29.71,29.51,5,0,5,0.00
2012-6-26,48.3,44.5,40.6,46.4,42.3,37.6,95,92,86,29.57,29.47,1,0,1,0.00
2012-6-27,62.0,53.7,38.9,41.6,34.6,30.1,94,51,34,29.68,29.50,17,0,17,0.00
2012-6-28,73.2,58.4,44.3,42.2,37.2,31.0,78,48,23,29.75,29.57,3,0,3,0.00
2012-6-29,69.3,57.4,47.4,46.0,40.3,37.4,74,55,36,29.66,29.56,7,0,7,0.00
2012-6-30,73.3,60.3,47.9,56.5,45.9,39.3,79,60,32,29.69,29.52,1,0,2,0.00
2012-7-1,68.1,63.1,32.0,40.4,38.5,32.0,52,40,32,29.55,0.00,9,0,9,0.00
2012-7-2,74.9,59.7,45.5,43.4,38.9,32.6,78,50,27,29.65,29.40,2,0,2,0.00
2012-7-3,63.9,52.3,47.0,45.6,39.8,31.6,88,63,35,29.43,29.17,16,0,16,0.00
2012-7-4,65.6,56.5,51.4,33.4,30.8,27.9,47,38,27,29.62,29.42,13,0,13,0.00
2012-7-5,73.7,64.6,43.8,38.4,33.4,27.0,75,33,20,29.77,29.63,2,0,2,0.00
2012-7-30,82.8,58.5,49.6,47.9,43.2,35.9,78,62,20,29.72,29.50,0,0,2,0.00
2012-7-31,82.0,73.5,51.3,47.6,41.8,38.9,87,36,25,29.82,29.54,0,0,4,0.00
2012-8-1,74.2,68.0,51.9,47.8,41.7,38.7,86,40,28,29.81,29.66,0,0,1,0.00
2012-8-2,51.3,51.3,51.3,49.1,49.1,49.1,92,92,92,29.68,29.68,0,0,1,0.00
2012-8-3,70.6,69.8,69.4,43.4,42.4,41.3,39,37,36,29.78,29.75,0,0,1,0.00
2012-8-4,85.1,74.5,55.9,49.7,46.2,42.3,67,38,23,29.83,29.62,0,0,1,0.00
2012-8-5,89.3,77.6,53.1,49.9,47.5,32.0,81,39,22,29.74,29.56,1,0,1,0.00
2012-8-6,93.6,77.5,57.8,60.7,49.2,39.8,68,41,17,29.77,29.61,2,0,2,0.00
2012-8-7,82.4,68.7,59.2,63.5,52.1,39.9,89,57,31,29.77,29.58,5,0,5,0.00
2012-8-8,85.9,63.8,32.0,60.8,49.4,32.0,87,64,26,29.83,29.54,4,0,4,0.00
2012-8-9,84.9,70.8,51.1,49.2,43.5,33.7,74,41,18,29.87,29.63,2,0,2,0.00
2012-8-10,80.9,65.0,51.9,53.9,46.3,39.6,71,53,27,29.75,29.55,7,0,7,0.00
2012-8-11,70.8,63.3,50.7,51.3,49.2,45.7,83,61,45,29.81,29.59,8,0,8,0.00
2012-8-12,76.3,62.4,48.8,56.6,50.4,44.3,89,67,44,29.91,29.68,6,0,6,0.00
2012-8-13,85.7,63.8,48.5,52.5,44.2,30.3,89,57,15,29.74,29.52,2,0,2,0.00
2012-8-14,76.1,62.5,48.2,49.8,42.5,34.0,92,52,27,29.83,29.36,0,0,10,0.00
2012-8-15,68.9,54.3,44.8,44.3,41.1,38.2,90,65,33,30.04,29.83,0,0,5,0.00
2012-8-16,81.6,59.1,40.5,45.2,39.2,32.8,88,55,18,29.92,29.67,0,0,1,0.00
2012-8-17,85.7,62.6,43.6,44.6,40.2,35.1,76,50,17,29.87,29.70,0,0,6,0.00
2012-8-18,89.9,74.9,47.3,49.8,44.3,35.8,79,38,15,29.87,29.61,4,0,4,0.00
2012-8-19,88.4,66.7,51.1,60.8,49.1,32.0,92,59,21,29.73,29.52,4,0,4,0.00
2012-8-20,85.5,64.6,50.2,55.2,49.9,39.6,93,64,21,29.76,29.52,1,0,1,0.00
2012-8-21,75.3,62.7,50.1,52.7,44.8,37.4,83,55,27,29.63,29.48,1,0,1,0.00
2012-8-22,79.8,64.3,54.1,46.5,41.8,36.2,65,46,22,29.58,29.44,4,0,4,0.00
2012-8-23,75.8,58.5,48.2,47.8,40.8,29.6,89,58,21,29.56,29.40,2,0,2,0.00
2012-8-24,58.3,48.7,43.1,47.5,39.5,24.5,94,74,30,29.73,29.46,11,0,11,0.00
2012-8-25,72.7,56.1,42.8,41.9,35.0,29.0,74,47,24,29.74,29.59,1,0,1,0.00
2012-8-26,79.6,58.1,39.1,47.8,40.8,33.9,83,57,26,29.81,29.57,3,0,3,0.00
2012-8-27,85.9,61.4,45.8,47.8,40.2,31.6,82,52,16,29.73,29.54,2,0,2,0.00
2012-8-28,82.8,65.1,49.2,41.6,36.2,28.5,66,38,16,29.64,29.34,4,0,4,0.00
2012-8-29,61.2,60.1,60.1,38.1,38.1,33.8,44,44,40,29.63,29.22,0,0,1,0.00
2012-8-30,60.1,57.9,0.0,38.1,36.7,0.0,44,42,44,29.64,29.57,0,0,0,0.00
2012-8-31,69.6,58.6,37.0,47.5,43.5,32.6,86,58,35,29.82,29.51,4,0,7,0.00
2012-9-1,60.7,51.3,44.8,46.0,40.6,25.3,89,70,27,29.59,29.46,3,0,14,0.00
2012-9-2,64.3,57.8,41.2,40.1,31.3,27.1,90,38,27,29.70,29.62,16,0,16,0.01
2012-9-3,63.4,54.8,46.8,38.4,34.6,29.0,66,47,34,29.76,29.65,15,0,15,0.00
2012-9-4,67.9,53.6,32.0,40.2,35.7,29.6,80,54,25,29.87,29.72,5,0,5,0.00
2012-9-5,54.2,47.8,42.8,46.1,38.7,32.1,95,72,48,29.91,29.74,0,0,6,0.28
2012-9-6,67.4,49.6,40.8,48.8,42.8,39.3,97,80,43,30.01,29.79,0,0,2,0.02
2012-9-7,78.3,55.1,39.1,48.5,38.3,33.6,82,57,24,30.07,29.85,0,0,3,0.00
2012-9-8,83.4,69.7,44.2,43.6,37.9,31.0,78,34,19,29.93,29.60,9,0,9,0.00
2012-9-9,77.4,53.8,45.7,48.0,41.3,33.4,92,65,28,29.61,29.33,16,0,16,0.26
2012-9-10,59.3,48.3,37.0,43.2,35.4,24.0,89,63,35,29.66,29.27,15,0,15,0.22
2012-9-11,53.1,42.9,36.2,30.3,22.9,16.7,75,47,27,30.02,29.66,11,0,11,0.00
2012-9-12,37.5,36.0,34.1,26.0,24.5,22.2,68,63,57,30.05,30.00,1,0,1,0.00
2012-9-13,74.4,54.0,39.6,40.4,35.6,32.0,74,53,23,30.16,29.92,0,0,1,0.00
2012-9-14,74.7,58.2,40.2,38.7,31.7,22.9,81,41,15,29.91,29.67,1,0,2,0.00
2012-9-15,56.3,43.3,37.5,35.8,32.5,28.3,78,66,34,29.95,29.72,3,0,3,0.00
2012-9-16,67.3,55.7,38.8,37.9,33.9,29.9,73,45,28,30.07,29.88,6,0,6,0.00
2012-9-17,77.6,53.5,36.0,42.5,33.2,26.7,83,51,21,29.98,29.72,2,0,2,0.00
2012-9-18,76.3,56.9,41.8,39.6,31.8,22.5,64,43,14,29.82,29.61,9,0,9,0.00
2012-9-19,77.9,58.1,41.9,39.8,34.9,27.2,75,47,16,29.88,29.69,2,0,2,0.00
2012-9-20,83.2,57.7,40.8,44.8,37.8,33.5,77,52,18,29.93,29.72,1,0,1,0.00
2012-9-21,83.4,58.9,41.3,46.6,39.5,35.4,81,53,24,29.95,29.70,2,0,2,0.00
2012-9-22,81.4,63.0,32.0,46.9,41.0,32.0,78,48,22,29.86,29.67,2,0,3,0.00
2012-9-23,76.7,57.2,43.8,48.6,43.2,38.7,84,62,31,29.90,29.72,1,0,1,0.00
2012-9-24,78.1,54.8,32.0,44.5,39.4,32.0,83,60,23,29.85,29.60,1,0,1,0.00
2012-9-25,57.6,47.3,39.1,47.2,40.5,33.2,96,78,57,29.89,29.61,1,0,1,0.03
2012-9-26,63.4,48.3,42.1,50.1,44.3,39.8,97,87,50,29.92,29.76,1,0,1,0.00
2012-9-27,72.8,49.1,32.0,44.5,38.5,32.0,95,71,27,29.98,29.72,1,0,1,0.00
2012-9-28,75.8,53.8,39.6,43.7,38.3,34.3,85,60,24,29.80,29.50,2,0,2,0.00
2012-9-29,67.8,58.1,49.9,43.3,37.4,27.1,72,48,27,29.77,29.50,3,0,3,0.00
2012-9-30,65.6,52.2,42.8,38.3,33.4,26.4,73,51,24,30.01,29.77,6,0,6,0.00
2012-10-1,53.5,49.0,45.4,32.2,30.5,27.9,57,49,41,29.94,29.80,1,0,1,0.00
2012-10-2,50.5,41.1,32.4,43.5,33.2,23.2,92,76,39,30.10,29.43,1,0,10,0.00
2012-10-3,40.2,33.3,27.5,31.2,28.3,23.9,93,82,57,30.36,30.12,0,0,5,0.00
2012-10-4,46.7,31.1,21.9,31.4,23.4,18.3,87,74,49,30.34,30.17,0,0,2,0.00
2012-10-5,51.4,31.7,21.3,27.6,22.3,17.5,86,71,31,30.35,30.14,0,0,1,0.00
2012-10-6,60.4,43.5,33.2,36.5,30.7,22.4,76,61,32,30.18,29.93,1,0,1,0.00
2012-10-7,63.1,42.9,32.5,41.7,31.8,26.8,81,65,32,29.93,29.69,6,0,6,0.00
2012-10-8,46.5,38.7,33.4,39.5,36.4,31.6,95,91,77,29.91,29.71,6,0,6,0.01
2012-10-9,34.6,33.7,32.7,33.6,32.5,31.4,96,96,95,29.93,29.91,1,0,1,0.00
2012-10-10,42.6,32.5,28.2,37.0,27.2,23.4,85,81,66,30.07,29.66,5,0,11,0.00
2012-10-11,52.8,33.0,24.8,33.3,25.9,21.4,89,76,40,30.07,29.64,7,0,7,0.02
2012-10-12,54.8,45.0,30.6,34.6,30.6,27.5,90,61,38,29.54,29.37,11,0,11,0.00
2012-10-13,56.2,50.1,46.1,38.5,33.9,29.8,69,54,38,29.71,29.43,7,0,7,0.00
2012-10-14,59.3,51.9,42.8,38.0,35.5,33.5,74,55,41,29.71,29.35,17,0,17,0.00
2012-10-15,60.4,53.2,32.0,39.2,33.1,26.6,66,47,29,29.44,29.09,14,0,14,0.00
2012-10-16,54.4,45.8,39.2,40.0,28.6,11.1,85,53,29,29.50,28.92,19,0,19,0.02
2012-10-17,43.9,38.6,32.4,16.3,11.9,7.4,49,33,23,30.03,29.50,19,0,19,0.00
2012-10-18,49.1,39.8,32.4,33.5,21.7,12.6,72,49,38,30.00,29.48,6,0,6,0.00
2012-10-19,52.2,46.5,32.0,39.7,34.1,29.4,83,62,45,29.48,29.13,15,0,15,0.02
2012-10-20,39.5,31.8,26.0,34.7,28.4,22.5,92,87,76,29.61,29.16,7,0,7,0.00
2012-10-21,32.4,26.0,23.9,23.6,21.7,20.1,89,83,68,29.81,29.61,4,0,4,0.01
2012-10-22,32.0,24.5,21.6,32.0,20.2,18.1,89,83,71,29.84,29.74,6,0,6,0.00
2012-10-23,25.7,21.1,18.1,18.3,15.4,13.5,87,79,66,29.95,29.76,5,0,5,0.00
2012-10-24,32.0,19.2,10.9,32.0,12.8,6.5,84,76,54,30.21,29.94,5,0,5,0.01
2012-10-25,30.9,22.7,18.4,17.0,14.6,12.7,81,71,53,30.31,30.17,4,0,4,0.00
2012-10-26,26.9,21.0,17.2,18.0,15.4,12.5,84,79,67,30.24,30.00,3,0,3,0.00
2012-10-27,29.7,21.4,16.7,19.9,16.0,12.6,87,80,64,30.00,29.75,3,0,3,0.00
2012-10-28,45.4,32.3,18.4,31.7,22.7,14.6,92,70,41,29.75,29.52,7,0,7,0.01
2012-10-29,45.4,36.4,25.4,33.4,27.6,21.3,88,71,56,29.64,29.49,2,0,2,0.01
2012-10-30,46.2,37.6,27.5,36.4,27.9,21.1,83,69,41,29.82,29.53,10,0,10,0.00
2012-10-31,30.3,26.7,24.1,23.4,21.7,20.0,86,81,74,29.94,29.73,1,0,3,0.00
2012-11-1,41.5,32.8,26.0,39.1,30.2,22.4,96,90,85,29.76,29.59,1,0,1,0.03
2012-11-2,42.3,34.1,29.7,36.5,31.6,27.7,96,90,75,29.92,29.74,1,0,1,0.00
2012-11-3,48.9,40.9,34.7,37.2,30.8,26.0,91,68,50,29.84,29.63,2,0,2,0.01
2012-11-4,57.5,43.2,34.1,38.0,32.1,28.6,91,67,45,30.02,29.65,12,0,12,0.00
2012-11-5,54.5,48.4,39.6,42.5,23.1,11.8,83,39,25,29.94,29.55,17,0,17,0.01
2012-11-6,40.5,35.1,28.8,35.0,26.8,14.8,96,73,36,29.97,29.53,2,0,2,0.01
2012-11-7,43.2,34.5,26.6,35.8,28.6,17.1,96,81,35,29.89,29.48,4,0,5,0.03
2012-11-8,27.2,21.4,16.5,24.4,16.9,11.7,89,83,77,30.07,29.87,9,0,9,0.00
2012-11-9,13.8,10.7,6.7,6.9,3.7,0.9,80,73,64,30.13,30.05,6,0,6,0.00
2012-11-10,15.1,8.3,4.5,6.2,1.5,-1.7,81,73,57,30.11,30.00,2,0,2,0.00
2012-11-11,23.6,15.0,4.3,12.2,4.0,-2.8,73,62,50,30.16,30.04,3,0,3,0.00
2012-11-12,30.7,26.6,19.5,18.8,15.1,8.2,70,62,55,30.06,29.93,3,0,6,0.00
2012-11-13,36.9,31.2,27.3,23.6,20.0,17.7,74,63,49,29.96,29.79,4,0,4,0.01
2012-11-14,39.2,33.9,27.9,22.0,18.2,13.3,72,53,36,30.01,29.72,3,0,3,0.00
2012-11-15,34.7,29.7,24.7,32.0,17.0,14.8,69,58,49,30.06,29.78,3,0,3,0.01
2012-11-16,37.3,29.5,23.5,18.6,16.3,14.6,72,58,45,29.78,29.67,6,0,6,0.00
2012-11-17,45.5,32.8,22.5,30.1,23.2,15.1,84,68,45,29.74,29.24,11,0,11,0.00
2012-11-18,38.6,34.2,29.8,33.7,24.9,13.7,91,70,38,29.82,29.13,11,0,11,0.01
2012-11-19,39.3,35.1,31.2,34.1,26.5,18.7,94,72,46,29.79,29.47,3,0,3,0.02
2012-11-20,36.8,29.6,17.0,34.1,27.1,13.0,95,89,84,29.82,29.45,7,0,7,0.02
2012-11-21,17.0,12.3,8.1,13.2,7.9,2.7,88,82,78,30.23,29.80,5,0,6,0.00
2012-11-22,26.0,14.8,4.3,18.0,9.0,-0.8,87,78,68,30.62,30.23,2,0,2,0.00
2012-11-23,35.0,30.0,25.4,27.3,22.9,16.9,87,75,66,30.43,29.92,3,0,4,0.01
2012-11-24,32.9,27.1,18.9,27.5,21.1,14.3,89,78,58,30.17,29.91,2,0,2,0.00
2012-11-25,27.3,21.0,17.3,17.5,14.5,11.5,88,76,57,30.37,30.12,1,0,1,0.00
2012-11-26,26.4,18.3,11.1,14.6,11.0,6.2,84,73,55,30.43,30.26,2,0,2,0.00
2012-11-27,28.5,19.9,12.9,17.0,12.1,8.2,83,72,57,30.35,30.20,3,0,3,0.00
2012-11-28,22.2,18.5,13.8,15.6,12.3,9.0,82,76,67,30.23,30.04,0,0,2,0.00
2012-11-29,39.8,27.3,14.9,27.3,21.2,10.7,90,78,53,30.04,29.68,1,0,3,0.02
2012-11-30,30.3,19.8,9.2,27.5,15.6,4.1,93,83,77,29.83,29.57,3,0,4,0.00
2012-12-1,35.9,18.0,7.2,30.9,13.9,1.9,94,84,76,29.82,29.59,2,0,2,0.00
2012-12-2,34.7,27.9,20.0,27.1,23.9,16.0,94,85,52,29.69,29.28,2,0,2,0.00
2012-12-3,34.7,32.5,30.4,25.5,22.0,17.2,76,65,51,29.77,29.57,2,0,2,0.00
2012-12-4,41.6,32.1,21.0,29.3,22.1,15.2,83,67,46,30.02,29.44,0,0,12,0.01
2012-12-5,36.6,30.4,24.4,29.8,18.6,8.1,93,63,41,30.03,29.45,0,0,9,0.00
2012-12-6,26.6,21.1,17.3,16.5,13.4,10.6,85,72,55,30.07,29.97,0,0,2,0.00
2012-12-7,20.0,13.3,7.6,16.7,9.1,3.0,87,83,78,30.06,29.87,0,0,0,0.00
2012-12-8,14.4,4.9,0.5,8.0,-0.2,-5.0,84,79,74,30.50,30.01,0,0,1,0.00
2012-12-9,23.0,13.5,-0.2,9.7,3.6,-6.2,81,65,53,30.52,30.02,9,0,9,0.00
2012-12-10,30.7,25.1,16.5,17.4,13.1,9.4,79,60,44,30.08,29.80,3,0,3,0.00
2012-12-11,34.9,31.0,23.2,19.9,15.7,11.2,73,53,39,29.80,29.49,5,0,5,0.00
2012-12-12,25.4,22.1,16.2,18.5,15.9,9.6,85,77,62,29.93,29.60,2,0,2,0.00
2012-12-13,28.2,25.5,19.7,12.5,11.0,8.8,69,54,45,29.94,29.72,2,0,7,0.00
2012-12-14,28.4,24.0,13.8,13.5,11.1,5.2,71,58,49,29.92,29.68,3,0,3,0.00
2012-12-15,21.4,16.7,13.1,7.9,5.2,3.2,72,60,47,29.94,29.63,1,0,4,0.00
2012-12-16,26.7,20.0,15.1,11.9,8.9,5.8,74,62,44,29.68,29.51,2,0,2,0.00
2012-12-17,26.9,19.8,14.1,18.0,13.4,8.2,85,76,55,29.54,29.33,2,0,3,0.00
2012-12-18,27.0,19.1,12.1,14.2,7.1,-0.5,73,60,47,29.99,29.54,2,0,2,0.00
2012-12-19,21.0,15.0,7.2,8.6,2.3,-2.2,68,57,43,30.05,29.98,3,0,3,0.00
2012-12-20,28.8,24.1,18.6,20.4,14.4,7.6,75,66,58,29.98,29.75,3,0,3,0.00
2012-12-21,27.9,12.7,4.1,23.8,7.1,-2.0,90,78,72,30.32,29.77,6,0,6,0.00
2012-12-22,4.1,-0.5,-3.7,-2.0,-7.2,-11.0,76,73,69,30.36,30.26,5,0,5,0.00
2012-12-23,32.0,-3.3,-7.0,32.0,-10.2,-13.9,74,71,68,30.43,30.26,4,0,4,0.00
2012-12-24,2.4,-3.1,-9.3,-5.7,-9.9,-16.2,74,72,67,30.66,30.41,2,0,2,0.00
2012-12-25,-1.4,-7.2,-12.5,-7.1,-14.0,-20.1,76,72,68,30.66,30.25,0,0,0,0.00
2012-12-26,11.6,5.1,-1.2,7.2,0.2,-7.2,85,80,72,30.25,30.06,1,0,1,0.00
2012-12-27,22.1,11.7,3.4,14.3,6.0,-1.8,86,78,67,30.18,30.05,2,0,2,0.00
2012-12-28,22.1,14.6,7.9,12.5,7.8,1.1,84,74,61,30.29,30.11,1,0,1,0.00
2012-12-29,22.4,13.6,5.0,13.3,8.0,-0.2,85,78,66,30.36,30.16,2,0,2,0.00
2012-12-30,18.0,9.4,2.0,8.7,2.7,-5.0,83,74,64,30.42,30.30,1,0,1,0.00
2012-12-31,23.2,19.0,13.6,13.9,10.8,7.1,77,70,64,30.34,30.28,0,0,3,0.00
2013-1-1,32.0,14.7,9.5,12.2,7.8,3.0,86,74,61,30.66,30.27,2,0,2,0.00